Zurück zum Katalog

COSMOS 2516

GLONASS

AktivNavigationMEO
NORAD 41554·PAYLOAD·🇷🇺 Russia

Gestartet May 29, 2016 von Plesetsk Cosmodrome

Loading…

Nächste Überflüge (nächste 24 Stunden)

TLE

AktuellSource: Space-Track

Epoche: Sep 11, 2026, 17:09 UTC

1 41554U 16032A   26254.71474176 -.00000001  00000-0  00000+0 0  9998
2 41554  63.8445 188.0910 0017369 211.9063 147.9814  2.13106544 80071

Verfolge COSMOS 2516 in Echtzeit mit AllMySat

Download on the App Store